Lid_Strength_Index
6 7 8 9 9 9 10 10 9 8 6 5 5 5 7 8 8 9 8 8 7 6 5 5 5 5 4 5 4 4 4 2 2 1 2 1 0 0 0 -0 0 -0 -0
8 8 8 9 9 9 10 10 10 10 8 7 6 6 6 8 10 10 11 10 9 8 7 7 6 6 6 6 5 5 6 5 4 5 3 4 3 1 1 0 0 0 -0
8 8 9 9 9 9 10 11 11 11 10 9 6 6 7 8 9 11 11 12 10 9 9 8 7 7 6 7 7 6 6 7 5 5 6 5 6 4 1 1 1 1 3
8 8 8 8 9 9 10 11 11 11 11 10 9 9 8 9 11 11 11 11 11 10 9 9 8 8 7 7 6 6 6 7 8 5 6 5 6 6 5 2 3 5 7
8 8 8 8 8 9 10 10 12 12 11 11 11 10 11 11 11 11 12 11 11 11 10 9 9 9 9 8 8 7 7 7 7 8 8 7 7 8 8 7 4 4 7
8 8 8 8 9 9 10 11 11 12 12 11 11 11 11 12 11 11 11 11 11 11 11 10 9 9 9 9 9 8 8 8 7 7 8 9 10 10 10 10 8 7 9
8 8 9 10 10 10 10 11 11 12 12 12 12 12 12 12 12 12 11 11 11 11 11 11 10 10 10 10 9 9 9 9 9 8 8 9 10 10 10 10 11 9 8
9 8 9 9 9 10 10 11 12 12 13 13 13 12 13 12 12 13 12 12 12 12 12 12 11 11 11 10 10 10 10 9 9 9 10 9 8 8 9 10 11 11 9
10 9 9 9 9 10 11 12 12 13 13 13 13 13 13 13 14 13 12 12 12 12 13 12 12 11 11 11 11 11 11 10 10 10 10 9 9 9 8 9 10 11 12
10 10 10 11 10 10 10 11 12 13 13 13 13 13 13 13 13 12 12 13 13 13 13 13 13 12 12 11 12 12 12 11 11 10 11 10 9 9 9 9 9 10 11
10 11 12 12 12 11 11 12 13 13 13 14 14 14 13 13 12 12 12 13 12 12 13 12 13 12 12 12 11 11 12 12 11 11 11 11 10 9 10 10 10 10 12
11 12 12 13 13 13 13 13 13 13 13 13 14 13 12 12 12 11 12 12 12 12 12 12 12 12 12 11 11 11 11 11 11 11 11 11 10 10 10 10 11 11 11
12 12 12 13 13 13 13 13 13 13 13 13 13 13 13 12 12 12 12 12 12 12 12 12 12 12 12 12 10 10 10 10 11 11 11 11 10 10 10 11 11 11 12
12 12 13 13 14 14 13 13 13 13 13 13 13 12 12 11 11 12 12 12 12 13 12 12 12 12 11 11 10 9 9 9 9 10 10 10 10 10 11 11 11 11 12
13 13 13 14 15 14 14 14 13 13 13 13 12 12 12 12 12 12 12 12 12 12 12 12 12 11 11 10 10 8 8 8 9 9 10 11 10 10 10 10 11 11 12
13 13 14 15 15 15 15 14 14 13 12 12 12 12 12 12 12 12 13 13 12 12 12 11 11 11 11 11 10 8 8 9 9 10 10 10 11 11 11 10 10 11 12
14 14 14 15 15 15 14 14 13 13 13 13 12 12 12 12 12 13 13 12 12 12 11 11 11 12 12 11 10 9 9 9 9 10 10 10 10 10 10 10 11 11 11
13 14 14 14 15 14 14 13 13 12 12 13 12 12 12 13 13 13 12 12 12 12 11 12 12 12 12 11 10 9 9 10 10 10 10 10 10 10 10 10 11 11 11
14 14 14 14 15 14 14 14 13 13 13 13 12 12 13 13 13 13 12 12 12 12 12 12 12 12 12 12 11 10 10 11 11 10 10 10 10 10 10 10 11 11 11
14 14 14 14 15 15 14 14 14 13 13 13 13 12 12 12 13 12 12 12 12 12 12 13 13 12 13 12 11 10 10 11 11 11 10 10 10 10 9 10 10 12 11
14 14 15 15 15 15 14 14 14 14 13 13 12 12 12 13 13 13 13 13 13 13 13 14 13 13 13 12 11 10 10 11 11 11 11 10 10 10 9 9 10 11 11
15 15 15 15 15 15 15 14 14 13 13 12 13 13 13 14 14 14 13 13 13 13 14 14 14 13 13 12 11 11 10 9 10 11 10 10 10 9 9 10 11 11 11
15 15 15 15 14 13 13 14 13 13 13 14 14 14 14 14 14 14 14 14 13 14 14 15 15 14 13 12 11 11 10 9 10 10 10 10 9 10 11 11 12 12 12
15 14 14 14 14 13 14 13 13 13 14 14 14 14 15 14 14 14 14 14 14 14 15 15 15 14 13 12 12 12 11 9 9 9 9 9 10 11 11 11 11 11 12
14 14 14 14 13 13 13 13 13 13 14 14 14 14 14 14 14 14 14 14 13 13 15 15 14 14 14 12 11 10 10 9 8 8 9 10 10 11 11 11 12 12 12
14 14 14 14 14 14 14 14 14 14 15 15 15 14 14 14 14 14 14 12 12 11 11 11 12 12 11 10 9 8 8 8 8 9 10 11 12 12 12 13 13 12 13